Time,TemperatureF,DewpointF,PressureIn,WindDirection,WindDirectionDegrees,WindSpeedMPH,WindSpeedGustMPH,Humidity,HourlyPrecipIn,Conditions,Clouds,dailyrainin,SolarRadiationWatts/m^2,SoftwareType,DateUTC
2013-06-12 00:13:00,74.0,70.0,-100.00,South,172,2.0,3.0,86,0.00,,,0.38,0.000000,,2013-06-12 04:13:00,
2013-06-12 00:23:00,74.0,70.0,-100.00,South,172,2.0,3.0,86,0.00,,,0.38,0.000000,,2013-06-12 04:23:00,
2013-06-12 00:33:00,74.0,70.0,-100.00,South,172,2.0,3.0,86,0.00,,,0.38,0.000000,,2013-06-12 04:33:00,
2013-06-12 00:42:00,74.0,70.0,-100.00,South,172,2.0,3.0,86,0.00,,,0.38,0.000000,,2013-06-12 04:42:00,
2013-06-12 01:12:00,75.0,70.0,-100.00,SW,216,2.0,3.0,84,0.00,,,0.38,0.000000,,2013-06-12 05:12:00,
2013-06-12 01:22:00,75.0,70.0,-100.00,SW,216,2.0,3.0,84,0.00,,,0.38,0.000000,,2013-06-12 05:22:00,
2013-06-12 01:32:00,75.0,70.0,-100.00,SW,216,2.0,3.0,84,0.00,,,0.38,0.000000,,2013-06-12 05:32:00,
2013-06-12 01:42:00,75.0,70.0,-100.00,SW,216,2.0,3.0,84,0.00,,,0.38,0.000000,,2013-06-12 05:42:00,
2013-06-12 02:12:00,75.0,71.0,-100.00,SSW,192,2.0,4.0,86,0.00,,,0.38,0.000000,,2013-06-12 06:12:00,
2013-06-12 02:22:00,75.0,71.0,-100.00,SSW,192,2.0,4.0,86,0.00,,,0.38,0.000000,,2013-06-12 06:22:00,
2013-06-12 02:32:00,75.0,71.0,-100.00,SSW,192,2.0,4.0,86,0.00,,,0.38,0.000000,,2013-06-12 06:32:00,
2013-06-12 02:42:00,75.0,71.0,-100.00,SSW,192,2.0,4.0,86,0.00,,,0.38,0.000000,,2013-06-12 06:42:00,
2013-06-12 03:12:00,76.0,72.0,-100.00,WSW,256,1.0,4.0,87,0.00,,,0.38,0.000000,,2013-06-12 07:12:00,
2013-06-12 03:22:00,76.0,72.0,-100.00,WSW,256,1.0,4.0,87,0.00,,,0.38,0.000000,,2013-06-12 07:22:00,
2013-06-12 03:33:00,76.0,72.0,-100.00,WSW,256,1.0,4.0,87,0.00,,,0.38,0.000000,,2013-06-12 07:33:00,
2013-06-12 03:43:00,76.0,72.0,-100.00,WSW,256,1.0,4.0,87,0.00,,,0.38,0.000000,,2013-06-12 07:43:00,
2013-06-12 04:12:00,76.0,72.0,-100.00,SW,232,2.0,5.0,87,0.00,,,0.38,0.000000,,2013-06-12 08:12:00,
2013-06-12 04:22:00,76.0,72.0,-100.00,SW,232,2.0,5.0,87,0.00,,,0.38,0.000000,,2013-06-12 08:22:00,
2013-06-12 04:33:00,76.0,72.0,-100.00,SW,232,2.0,5.0,87,0.00,,,0.38,0.000000,,2013-06-12 08:33:00,
2013-06-12 04:43:00,76.0,72.0,-100.00,SW,232,2.0,5.0,87,0.00,,,0.38,0.000000,,2013-06-12 08:43:00,
2013-06-12 05:11:00,76.0,72.0,-100.00,SW,216,2.0,5.0,88,0.00,,,0.38,0.000000,,2013-06-12 09:11:00,
2013-06-12 05:22:00,76.0,72.0,-100.00,SW,216,2.0,5.0,88,0.00,,,0.38,0.000000,,2013-06-12 09:22:00,
2013-06-12 05:33:00,76.0,72.0,-100.00,SW,216,2.0,5.0,88,0.00,,,0.38,0.000000,,2013-06-12 09:33:00,
2013-06-12 05:43:00,76.0,72.0,-100.00,SW,216,2.0,5.0,88,0.00,,,0.38,0.000000,,2013-06-12 09:43:00,
2013-06-12 06:23:00,75.0,72.0,-100.00,SW,231,2.0,6.0,89,0.00,,,0.38,0.000000,,2013-06-12 10:23:00,
2013-06-12 06:33:00,75.0,72.0,-100.00,SW,231,2.0,6.0,89,0.00,,,0.38,0.000000,,2013-06-12 10:33:00,
2013-06-12 06:43:00,75.0,72.0,-100.00,SW,231,2.0,6.0,89,0.00,,,0.38,0.000000,,2013-06-12 10:43:00,
2013-06-12 07:12:00,75.0,72.0,-100.00,SW,228,2.0,5.0,90,0.00,,,0.38,3.000000,,2013-06-12 11:12:00,
2013-06-12 07:24:00,75.0,72.0,-100.00,SW,228,2.0,5.0,90,0.00,,,0.38,3.000000,,2013-06-12 11:24:00,
2013-06-12 07:33:00,75.0,72.0,-100.00,SW,228,2.0,5.0,90,0.00,,,0.38,3.000000,,2013-06-12 11:33:00,
2013-06-12 07:43:00,75.0,72.0,-100.00,SW,228,2.0,5.0,90,0.00,,,0.38,3.000000,,2013-06-12 11:43:00,
2013-06-12 08:23:00,76.0,72.0,-100.00,SW,234,2.0,5.0,88,0.00,,,0.38,35.000000,,2013-06-12 12:23:00,
2013-06-12 08:33:00,76.0,72.0,-100.00,SW,234,2.0,5.0,88,0.00,,,0.38,35.000000,,2013-06-12 12:33:00,
2013-06-12 08:43:00,76.0,72.0,-100.00,SW,234,2.0,5.0,88,0.00,,,0.38,35.000000,,2013-06-12 12:43:00,
2013-06-12 09:22:00,77.0,72.0,-100.00,SW,234,2.0,5.0,86,0.00,,,0.38,73.000000,,2013-06-12 13:22:00,
2013-06-12 09:33:00,77.0,72.0,-100.00,SW,234,2.0,5.0,86,0.00,,,0.38,73.000000,,2013-06-12 13:33:00,
2013-06-12 09:43:00,77.0,72.0,-100.00,SW,234,2.0,5.0,86,0.00,,,0.38,73.000000,,2013-06-12 13:43:00,
2013-06-12 10:24:00,80.0,74.0,-100.00,WSW,237,2.0,6.0,81,0.00,,,-99.99,142.000000,,2013-06-12 14:24:00,
2013-06-12 10:33:00,80.0,74.0,-100.00,WSW,237,2.0,6.0,81,0.00,,,-99.99,142.000000,,2013-06-12 14:33:00,
2013-06-12 10:43:00,80.0,74.0,-100.00,WSW,237,2.0,6.0,81,0.00,,,-99.99,142.000000,,2013-06-12 14:43:00,
2013-06-12 11:12:00,81.0,73.0,-100.00,WSW,252,2.0,6.0,78,0.00,,,0.00,180.000000,,2013-06-12 15:12:00,
2013-06-12 11:23:00,81.0,73.0,-100.00,WSW,252,2.0,6.0,78,0.00,,,0.00,180.000000,,2013-06-12 15:23:00,
2013-06-12 11:33:00,81.0,73.0,-100.00,WSW,252,2.0,6.0,78,0.00,,,0.00,180.000000,,2013-06-12 15:33:00,
2013-06-12 11:43:00,81.0,73.0,-100.00,WSW,252,2.0,6.0,78,0.00,,,0.00,180.000000,,2013-06-12 15:43:00,
2013-06-12 12:22:00,86.0,75.0,-100.00,WSW,238,3.0,6.0,70,0.00,,,0.00,441.000000,,2013-06-12 16:22:00,
2013-06-12 12:33:00,86.0,75.0,-100.00,WSW,238,3.0,6.0,70,0.00,,,0.00,441.000000,,2013-06-12 16:33:00,
2013-06-12 12:43:00,86.0,75.0,-100.00,WSW,238,3.0,6.0,70,0.00,,,0.00,441.000000,,2013-06-12 16:43:00,
2013-06-12 13:12:00,89.0,75.0,-100.00,WSW,258,4.0,10.0,64,0.00,,,-99.99,768.000000,,2013-06-12 17:12:00,
2013-06-12 13:23:00,89.0,75.0,-100.00,WSW,258,4.0,10.0,64,0.00,,,-99.99,768.000000,,2013-06-12 17:23:00,
2013-06-12 13:33:00,89.0,75.0,-100.00,WSW,258,4.0,10.0,64,0.00,,,-99.99,768.000000,,2013-06-12 17:33:00,
2013-06-12 13:42:00,89.0,75.0,-100.00,WSW,258,4.0,10.0,64,0.00,,,-99.99,768.000000,,2013-06-12 17:42:00,
2013-06-12 14:12:00,90.0,74.0,-100.00,SW,233,3.0,7.0,59,0.00,,,0.00,822.000000,,2013-06-12 18:12:00,
2013-06-12 14:22:00,90.0,74.0,-100.00,SW,233,3.0,7.0,59,0.00,,,0.00,822.000000,,2013-06-12 18:22:00,
2013-06-12 14:33:00,90.0,74.0,-100.00,SW,233,3.0,7.0,59,0.00,,,0.00,822.000000,,2013-06-12 18:33:00,
2013-06-12 14:43:00,90.0,74.0,-100.00,SW,233,3.0,7.0,59,0.00,,,0.00,822.000000,,2013-06-12 18:43:00,
2013-06-12 15:11:00,90.0,74.0,-100.00,SW,228,4.0,8.0,59,0.00,,,0.00,716.000000,,2013-06-12 19:11:00,
2013-06-12 15:22:00,90.0,74.0,-100.00,SW,228,4.0,8.0,59,0.00,,,0.00,716.000000,,2013-06-12 19:22:00,
2013-06-12 15:32:00,90.0,74.0,-100.00,SW,228,4.0,8.0,59,0.00,,,0.00,716.000000,,2013-06-12 19:32:00,
2013-06-12 15:42:00,90.0,74.0,-100.00,SW,228,4.0,8.0,59,0.00,,,0.00,716.000000,,2013-06-12 19:42:00,
2013-06-12 16:11:00,91.0,73.0,-100.00,SW,224,4.0,9.0,55,0.00,,,0.00,814.000000,,2013-06-12 20:11:00,
2013-06-12 16:22:00,91.0,73.0,-100.00,SW,224,4.0,9.0,55,0.00,,,0.00,814.000000,,2013-06-12 20:22:00,
2013-06-12 16:32:00,91.0,73.0,-100.00,SW,224,4.0,9.0,55,0.00,,,0.00,814.000000,,2013-06-12 20:32:00,
2013-06-12 16:43:00,91.0,73.0,-100.00,SW,224,4.0,9.0,55,0.00,,,0.00,814.000000,,2013-06-12 20:43:00,
2013-06-12 17:12:00,90.0,71.0,-100.00,SSW,201,4.0,9.0,54,0.00,,,0.00,569.000000,,2013-06-12 21:12:00,
2013-06-12 17:22:00,90.0,71.0,-100.00,SSW,201,4.0,9.0,54,0.00,,,0.00,569.000000,,2013-06-12 21:22:00,
2013-06-12 17:33:00,90.0,71.0,-100.00,SSW,201,4.0,9.0,54,0.00,,,0.00,569.000000,,2013-06-12 21:33:00,
2013-06-12 17:43:00,90.0,71.0,-100.00,SSW,201,4.0,9.0,54,0.00,,,0.00,569.000000,,2013-06-12 21:43:00,
2013-06-12 18:11:00,90.0,72.0,-100.00,SW,226,4.0,9.0,56,0.00,,,0.00,202.000000,,2013-06-12 22:11:00,
2013-06-12 18:22:00,90.0,72.0,-100.00,SW,226,4.0,9.0,56,0.00,,,0.00,202.000000,,2013-06-12 22:22:00,
2013-06-12 18:32:00,90.0,72.0,-100.00,SW,226,4.0,9.0,56,0.00,,,0.00,202.000000,,2013-06-12 22:32:00,
2013-06-12 18:43:00,90.0,72.0,-100.00,SW,226,4.0,9.0,56,0.00,,,0.00,202.000000,,2013-06-12 22:43:00,
2013-06-12 19:12:00,89.0,71.0,-100.00,WSW,255,4.0,11.0,56,0.00,,,0.00,102.000000,,2013-06-12 23:12:00,
2013-06-12 19:22:00,89.0,71.0,-100.00,WSW,255,4.0,11.0,56,0.00,,,0.00,102.000000,,2013-06-12 23:22:00,
2013-06-12 19:32:00,89.0,71.0,-100.00,WSW,255,4.0,11.0,56,0.00,,,0.00,102.000000,,2013-06-12 23:32:00,
2013-06-12 19:42:00,89.0,71.0,-100.00,WSW,255,4.0,11.0,56,0.00,,,0.00,102.000000,,2013-06-12 23:42:00,
2013-06-12 20:12:00,87.0,72.0,-100.00,SSW,209,3.0,12.0,61,0.00,,,0.00,50.000000,,2013-06-13 00:12:00,
2013-06-12 20:22:00,87.0,72.0,-100.00,SSW,209,3.0,12.0,61,0.00,,,0.00,50.000000,,2013-06-13 00:22:00,
2013-06-12 20:32:00,87.0,72.0,-100.00,SSW,209,3.0,12.0,61,0.00,,,0.00,50.000000,,2013-06-13 00:32:00,
2013-06-12 20:42:00,87.0,72.0,-100.00,SSW,209,3.0,12.0,61,0.00,,,0.00,50.000000,,2013-06-13 00:42:00,
2013-06-12 21:12:00,86.0,71.0,-100.00,WSW,245,3.0,10.0,61,0.00,,,0.00,24.000000,,2013-06-13 01:12:00,
2013-06-12 21:22:00,86.0,71.0,-100.00,WSW,245,3.0,10.0,61,0.00,,,0.00,24.000000,,2013-06-13 01:22:00,
2013-06-12 21:33:00,86.0,71.0,-100.00,WSW,245,3.0,10.0,61,0.00,,,0.00,24.000000,,2013-06-13 01:33:00,
2013-06-12 21:43:00,86.0,71.0,-100.00,WSW,245,3.0,10.0,61,0.00,,,0.00,24.000000,,2013-06-13 01:43:00,
2013-06-12 22:12:00,84.0,70.0,-100.00,SW,216,3.0,6.0,64,0.00,,,0.00,3.000000,,2013-06-13 02:12:00,
2013-06-12 22:22:00,84.0,70.0,-100.00,SW,216,3.0,6.0,64,0.00,,,0.00,3.000000,,2013-06-13 02:22:00,
2013-06-12 22:33:00,84.0,70.0,-100.00,SW,216,3.0,6.0,64,0.00,,,0.00,3.000000,,2013-06-13 02:33:00,
2013-06-12 22:43:00,84.0,70.0,-100.00,SW,216,3.0,6.0,64,0.00,,,0.00,3.000000,,2013-06-13 02:43:00,